Preview of NWS' New Version of Forecast
This preview is not operational and should not be used for support decisions.

Regional Weather Roundup (RWR)

Issued by National Weather Service (NWS)

                            
000
ASUS43 KDMX 160606
RWRIA 

WEATHER ROUNDUP FOR IOWA
NATIONAL WEATHER SERVICE DES MOINES IA
100 AM CDT MON SEP 16 2019

NOTE: "FAIR" INDICATES FEW OR NO CLOUDS BELOW 12,000 FEET WITH NO
SIGNIFICANT WEATHER AND/OR OBSTRUCTIONS TO VISIBILITY.

* - THESE STATIONS ARE NOT NWS STATIONS...THUS NOT UNDER NWS
QUALITY CONTROL.  THEY ALSO DO NOT REPORT WEATHER SUCH 
AS PRECIPITATION OR FOG.  

IAZ001>003-012>014-020>022-031>034-043>046-160700-
   NORTHWEST IOWA
  
CITY           SKY/WX    TMP DP  RH WIND       PRES   REMARKS
CARROLL *      CLEAR     64  64 100 S6        30.03S FOG              
CHEROKEE *     CLEAR     63  63 100 CALM      30.00F                  
DENISON *      CLEAR     70  70 100 SE7       30.03S                  
LE MARS *      CLEAR     66  66 100 S5        29.99S                  
SHELDON *        N/A     64  63  94 CALM      29.99S                  
SIOUX CITY     CLEAR     67  65  93 SE6       29.99R                  
6HR MIN TEMP:  66; 6HR MAX TEMP:  81;                                

SPENCER        CLEAR     64  60  87 SE7       30.02F                  
6HR MIN TEMP:  64; 6HR MAX TEMP:  80;                                

STORM LAKE *   CLEAR     68  68 100 SE9       30.00S                  
$$
 
IAZ055>058-069>071-079>083-090>094-160700-
   SOUTHWEST IOWA
  
CITY           SKY/WX    TMP DP  RH WIND       PRES   REMARKS
ATLANTIC *     PTCLDY    68  68 100 MISG      30.02R                  
AUDUBON *        N/A     66  63  88 CALM      30.04F                  
CLARINDA *     CLEAR     68  68 100 CALM      30.03F                  
COUNCIL BLFS * CLEAR     73  73 100 SE6       29.99S                  
CRESTON *      CLEAR     70  70 100 SE5       30.04S                  
LAMONI         CLEAR     76  70  82 S5        30.04S                  
6HR MIN TEMP:  75; 6HR MAX TEMP:  83;                                

RED OAK *      CLEAR     72  70  94 CALM      30.01F                  
SHENANDOAH *   CLEAR     73  72  94 CALM      29.99F                  
$$
 
IAZ047>049-059>061-072>074-084-160700-
   CENTRAL IOWA
  
CITY           SKY/WX    TMP DP  RH WIND       PRES   REMARKS
AMES           FOG       61  61 100 S3        30.04R VSB 1/4          
6HR MIN TEMP:  61; 6HR MAX TEMP:  81;                                

ANKENY *       FOG       66  64  94 CALM      30.05R VSB<1/4          
BOONE *        CLEAR     68  68 100 E5        30.03S                  
CHARITON *     CLEAR     70  70 100 S5        30.04S                  
DES MOINES     CLEAR     72  69  90 CALM      30.03R                  
6HR MIN TEMP:  71; 6HR MAX TEMP:  83;                                

GRINNELL*      CLEAR     68  67  96 E5        30.06R FOG              
KNOXVILLE *    CLEAR     72  72 100 CALM      30.03S                  
MARSHALLTOWN   FOG       64  64 100 E6        30.04S VSB 1/2          
6HR MIN TEMP:  64; 6HR MAX TEMP:  75;                                

NEWTON *       CLEAR     68  68 100 CALM      30.04R FOG              
PELLA *        CLEAR     71  68  91 CALM      30.05R                  
PERRY *        FAIR      66  65  97 S3        30.04S FOG              
$$
 
IAZ004>006-015-016-023>025-035-036-160700-
   NORTH CENTRAL IOWA
  
CITY           SKY/WX    TMP DP  RH WIND       PRES   REMARKS
ALGONA *       CLEAR     68  68 100 SE8       30.03R                  
CLARION *      CLEAR     66  63  88 SE8       30.05R                  
ESTHERVILLE    CLEAR     60  60 100 S7        30.02S FOG              
6HR MIN TEMP:  59; 6HR MAX TEMP:  75;                                

FORT DODGE *   FOG       63  63 100 SE3       30.04S VSB 1            
MASON CITY     CLEAR     58  57  97 S6        30.06S                  
6HR MIN TEMP:  58; 6HR MAX TEMP:  80;                                

FOREST CITY *  FAIR      59  59 100 CALM      30.04S                  
IOWA FALLS *     N/A     64  58  82 E6        30.06S                  
$$

IAZ007>011-017>019-026>030-037>042-050>054-066-160700-
   NORTHEAST IOWA
  
CITY           SKY/WX    TMP DP  RH WIND       PRES   REMARKS
CEDAR RAPIDS     N/A     68  68 100 E3        30.04S FOG              
6HR MIN TEMP:  68; 6HR MAX TEMP:  81;                                

CHARLES CITY * FAIR      64  63  94 SE6       30.06S                  
CLINTON *      FAIR      67  67 100 CALM      30.06R FOG              
DECORAH *      FAIR      63  63 100 CALM      30.06R                  
DUBUQUE        FOG       61  61 100 CALM      30.07R VSB<1/4          
6HR MIN TEMP:  60; 6HR MAX TEMP:  74;                                

MONTICELLO *     N/A     64  64 100 CALM      30.06R                  
OELWEIN *      FOG       63  63 100 SE3       30.06S VSB 0            
WATERLOO       FOG       63  61  93 CALM      30.04S VSB 1/4          
6HR MIN TEMP:  62; 6HR MAX TEMP:  79;                                

$$
 
IAZ064-065-067-068-078-160700-
   EAST CENTRAL IOWA
  
CITY           SKY/WX    TMP DP  RH WIND       PRES   REMARKS
DAVENPORT      FAIR      69  67  93 N5        30.06S FOG              
6HR MIN TEMP:  69; 6HR MAX TEMP:  78;                                

IOWA CITY      FAIR      74  71  91 N3        30.05R                  
6HR MIN TEMP:  74; 6HR MAX TEMP:  84;                                

MUSCATINE *    FAIR      70  70 100 CALM      30.04R FOG              
QUAD CITIES    FAIR      70  68  93 CALM      30.04R FOG              
6HR MIN TEMP:  70; 6HR MAX TEMP:  82;                                

$$
 
IAZ062-063-075>077-085>089-095>099-160700-
   SOUTHEAST IOWA
  
CITY           SKY/WX    TMP DP  RH WIND       PRES   REMARKS
BURLINGTON     CLEAR     72  70  93 CALM      30.03S                  
6HR MIN TEMP:  72; 6HR MAX TEMP:  82;                                

FAIRFIELD *    CLEAR     70  70 100 CALM      30.04R FOG              
FORT MADISON * CLEAR     72  72 100 CALM      30.04S FOG              
KEOKUK *       CLEAR     72  72 100 CALM      30.03S                  
OSKALOOSA *    FAIR      69  66  90 CALM      30.04S                  
CENTERVILLE *  FAIR      68  68 100 CALM      30.06S FOG              
OTTUMWA        CLEAR     71  69  93 CALM      30.03S                  
6HR MIN TEMP:  69; 6HR MAX TEMP:  83;                                

WASHINGTON *     N/A    N/A N/A N/A MISG        N/A                   
$$

ABBREVIATIONS USED IN REMARKS
   TC - TEMPERATURES IN CELSIUS
  WCI - WIND CHILL INDEX
   HX - HEAT INDEX
  VSB - VISIBILITY  
$$